SL-14 R/B, 22652

Orbit data source: Space-Track

SL-14 R/B, 22652 is space debris in LEO originally from a launch on Tue, 11 May 1993 UTC launched from the Plesetsk Missile And Space Complex (PKMTR). Debris objects in space refer to the collection of defunct objects orbiting the Earth. Examples of debris include non-operational satellites, rocket bodies, and fragments generated from explosions, collisions, or faulty payload assembly.

Loading next visibility...
Identifier
22652, 1993-030G
Orbit
LEO
Country
Flag of CISCIS
Related business
Manufacturer
Yuzhnoe
Mission
Spacecraft
Bus & Motor
S5M, Unknown motor
Mass
1,600 kg wet, 1,600 kg dry
Launch date (UTC)
1993-05-11 (32 years ago)
Launch vehicle
Unknown
Launch site
Plesetsk Missile And Space Complex (PKMTR)
Object type
Payload
Rocket body
Debris
Shape & HBR
Cyl, 1.4 m
Radar Cross Section
7.351 m², Medium (>0.1 m² and < 1m²)

Expand to show TLE details & history
Last TLE update: 1 day ago

TLE from 1 day ago
0 SL-14 R/B
1 22652U 93030G   25308.95319359  .00000004  00000-0 -35736-4 0  9997
2 22652  82.5833 107.3322 0008486  89.2874  83.4990 12.63194160497725
Epoch: 2025-11-04T22:52Z
TLE epoch observation values (Epoch: 2025-11-04T22:52:35.926Z)
Latitude
6.98881°
Longitude
-101.16014°
Altitude
1,411.144 km
Speed
7.156 km/s
True Right ascension
19h 05m 41s
True Declination
6° 57' 03"
Sunlit
Object was in daylight at epoch
Visualization orbit readout
Latitude
Unknown
Longitude
Unknown
Altitude
Unknown
Speed
Unknown
Apparent Right ascension
Unknown
Apparent Declination
Unknown
Sunlit
N/A
Visualization observer readout
Local Sidereal Time
21:46:17
Azimuth
Unknown
Elevation
Unknown
Doppler factor
Unknown
Orbital elements
Apogee altitude
1,413.714 km
Perigee altitude
1,400.501 km
Semi-major axis
7,785.244 km
Eccentricity
0.00085
Inclination
82.5833°
RAAN
107.3322°
Arg. of periapsis
89.2874°
True anomaly
83.59563°
Mean anomaly
83.499°
Eccentric anomaly
83.54731°
Mean motion
3.15962 °/min
Orbital period
113.94 mins
BSTAR
-0.000035736
Loading maneuver chart data...
Computing Atmospheric mass density...
Loading historical data...
Loading historical data...
Loading historical data...
Loading historical data...
Loading historical data...
Loading historical data...
Loading historical data...

Documentation

Showing up to 5 results
|